GFSNE_250_spd_132.txt.gz
Wind_Speed
11 11 10 18 15 9 8 5 4 4 3 5 7 13 13 12 10 18 15 22 25 25 25 26 29 28 32 35 34 33 30 31 29 32 26 26 23 22
13 14 13 13 12 8 5 2 0 1 1 4 3 5 9 10 12 10 13 19 20 18 17 20 27 27 31 36 34 34 34 32 30 33 28 34 23 17
18 21 19 16 12 9 5 7 7 6 5 5 5 4 10 12 10 10 13 15 16 27 25 28 33 31 36 33 35 35 33 34 33 30 29 32 32 29
21 20 18 17 15 13 11 11 12 10 7 5 8 10 11 14 14 14 18 20 30 35 36 36 36 37 37 38 39 39 39 37 35 32 30 29 29 30
23 22 19 18 17 15 12 12 10 12 10 11 16 16 21 23 21 25 25 32 35 31 34 33 34 34 35 35 37 41 42 36 32 30 32 33 32 35
22 22 20 17 15 14 14 15 15 14 16 19 22 25 26 27 28 32 37 33 36 38 40 41 39 39 39 41 40 42 44 42 39 36 34 33 29 28
24 22 23 23 21 20 19 17 17 22 24 24 27 28 29 33 37 39 40 42 46 46 45 44 41 41 42 44 44 43 44 48 43 45 44 45 46 44
27 29 33 33 30 27 26 25 28 30 29 30 33 35 38 41 43 42 45 48 50 51 50 47 50 51 51 49 51 50 51 55 56 53 54 53 55 56
34 35 38 38 35 36 36 36 37 38 39 40 43 45 45 46 46 48 49 49 52 52 54 56 56 59 61 63 56 55 55 60 61 63 63 60 59 57
37 38 40 42 44 45 45 45 45 46 47 48 50 49 51 51 47 50 52 54 55 59 62 65 66 67 65 67 70 72 72 69 70 67 67 69 70 59
42 42 41 44 50 50 50 51 54 55 57 57 57 58 61 60 57 58 61 64 67 70 71 71 72 75 79 78 80 81 80 83 81 81 78 71 74 78
49 48 48 50 51 51 54 56 57 60 62 60 62 61 63 62 65 67 71 73 76 76 76 77 80 79 84 89 90 89 88 86 88 89 89 89 88 81
56 55 56 57 59 61 62 64 65 65 65 65 68 70 73 77 79 76 76 78 81 84 87 86 89 89 90 90 88 90 90 90 90 94 94 95 97 93
62 62 62 65 67 68 68 68 70 72 74 75 75 77 78 83 86 86 85 84 88 91 92 97 98 96 98 100 100 94 96 103 102 102 100 97 96 98
63 66 68 70 73 71 72 74 76 78 79 80 85 85 89 90 92 96 96 93 97 100 101 102 106 106 109 105 102 105 111 111 111 110 108 110 108 107
73 79 80 80 80 82 83 84 86 87 87 88 89 94 98 97 100 102 99 99 110 110 110 109 105 114 112 109 109 112 114 115 113 111 112 106 110 111
84 85 88 89 88 89 91 91 94 96 95 96 99 103 103 103 98 101 103 111 113 114 118 116 116 118 118 122 124 123 120 121 117 115 114 115 114 112
94 94 93 92 94 97 98 99 103 104 105 106 106 108 111 111 111 114 117 116 121 120 122 125 125 125 129 127 123 126 115 120 112 115 111 123 120 119
94 93 92 97 100 105 108 110 112 114 116 116 117 122 122 120 122 125 125 125 129 129 126 131 131 133 134 129 130 124 129 128 132 134 135 138 143 146
97 98 104 109 113 115 116 117 117 119 121 122 124 124 125 128 131 132 130 131 135 133 133 133 128 128 134 139 143 143 149 153 157 159 160 159 163 159
109 112 113 116 119 121 121 120 122 124 126 127 128 127 126 127 133 135 136 140 140 139 142 141 144 147 151 154 160 162 170 167 167 160 161 157 150 149
116 117 117 119 121 125 127 127 128 131 133 135 134 135 133 132 137 142 144 150 149 151 153 157 163 164 163 164 168 160 156 147 144 140 134 131 129 130
115 117 119 123 125 126 123 126 129 131 132 134 138 143 144 145 147 149 154 155 159 165 172 167 163 155 144 132 131 125 123 122 121 119 118 117 114 113

GFSNE_250_spd_138.txt.gz
Wind_Speed
9 9 10 19 18 16 13 12 8 4 3 1 0 4 3 5 6 8 9 13 13 20 18 20 25 25 26 28 27 31 31 32 31 30 29 25 19 19
8 12 14 20 22 18 14 10 7 6 5 6 4 4 3 4 9 9 7 11 14 19 20 21 27 24 25 22 23 27 30 30 27 24 22 25 27 27
15 14 17 23 25 22 16 13 11 11 10 8 9 10 8 6 8 11 12 14 17 20 21 22 23 24 25 24 25 27 27 27 27 28 30 30 30 28
17 20 21 22 25 21 19 19 18 13 12 12 13 12 13 10 10 11 13 16 17 19 22 23 24 22 23 27 33 35 35 35 37 37 32 30 33 34
20 21 25 24 24 24 23 22 21 17 13 15 17 17 18 18 17 17 18 20 21 24 27 28 29 28 28 28 32 37 37 39 39 38 38 38 36 34
18 21 22 23 22 29 28 25 24 22 21 21 23 23 24 24 25 27 28 28 28 28 31 33 34 36 34 36 36 37 39 41 42 44 47 41 39 41
19 19 21 27 32 32 30 28 28 27 26 28 28 26 26 29 33 33 35 38 37 38 39 42 42 41 39 40 39 43 45 44 49 54 54 56 54 52
28 28 29 30 34 33 32 33 32 33 33 35 34 35 36 37 41 40 42 44 45 46 43 44 47 48 48 47 48 49 51 50 53 56 57 59 63 66
31 29 30 33 35 38 37 38 39 38 40 41 41 41 43 46 46 48 49 50 50 50 49 51 52 51 52 55 59 59 57 59 62 62 63 65 68 69
32 34 36 37 37 40 43 42 43 44 44 44 44 45 47 49 50 51 51 52 53 54 56 61 63 62 62 63 62 63 65 68 69 70 72 71 72 74
37 38 40 41 43 44 45 47 46 47 48 49 51 52 52 54 55 57 58 59 61 64 66 67 69 72 73 76 77 77 75 75 77 79 81 84 82 80
42 42 43 46 47 48 47 47 48 49 50 53 55 58 59 61 62 64 64 63 64 67 70 76 78 78 80 80 80 82 83 84 88 91 91 93 96 95
50 50 50 50 48 54 54 54 56 57 57 58 60 60 63 63 62 66 68 69 74 77 81 84 84 85 84 84 84 90 93 97 98 99 99 100 102 101
59 60 60 61 63 61 58 61 61 60 63 66 68 68 68 72 74 77 79 82 84 87 89 94 95 92 91 96 98 103 104 104 107 105 107 108 110 107
62 60 62 59 58 60 60 64 70 72 73 73 75 75 80 82 82 84 88 95 95 99 103 107 109 110 109 108 112 114 119 119 116 117 118 114 113 110
69 62 55 61 66 64 66 76 77 77 78 79 81 86 89 91 94 100 103 106 110 111 114 117 119 121 125 129 130 129 125 127 122 121 121 121 120 119
59 59 62 65 73 74 72 75 80 81 86 91 94 96 102 107 110 113 115 117 121 123 126 131 133 137 134 129 131 131 129 126 127 127 127 130 129 130
67 68 64 67 69 76 81 86 88 94 98 100 103 107 108 114 120 122 125 128 131 132 134 134 134 135 133 133 131 133 132 134 136 141 142 144 144 144
74 76 75 78 81 85 88 93 98 95 99 108 107 115 116 117 123 126 132 136 139 135 129 130 132 134 133 134 139 143 145 146 148 156 145 139 144 154
74 79 79 81 86 93 99 99 96 103 106 113 119 119 124 120 126 135 134 131 130 132 133 139 141 140 139 146 156 151 150 148 136 122 117 115 111 108
82 85 86 90 91 92 96 100 103 106 116 122 121 118 119 125 127 127 132 136 137 138 143 143 146 152 158 156 152 137 128 120 114 112 107 102 99 96
93 94 93 96 102 106 107 107 112 117 115 110 115 120 126 130 130 131 133 140 147 146 149 151 151 145 141 138 124 117 113 105 99 95 91 87 84 81
92 94 96 96 98 103 107 107 106 108 113 116 124 124 127 131 136 137 152 147 149 152 151 148 142 138 123 117 114 102 93 90 86 82 79 76 72 70

GFSNE_250_spd_141.txt.gz
Wind_Speed
13 13 12 21 22 13 14 14 12 12 11 9 3 3 2 3 3 5 4 2 8 12 16 16 16 18 19 20 23 24 23 24 24 23 22 20 17 18
10 12 13 15 23 19 18 16 13 13 12 11 9 9 9 6 4 4 5 6 10 12 12 12 13 13 11 11 14 15 16 17 17 19 21 22 19 20
12 13 14 15 22 25 21 18 17 15 15 14 12 14 14 14 13 13 11 10 11 12 13 15 15 17 16 14 14 16 17 18 19 19 20 17 18 20
17 14 15 13 24 26 26 23 22 20 18 17 17 19 19 20 18 17 16 16 15 17 18 19 21 22 23 25 25 25 26 24 23 24 23 25 27 27
16 16 20 19 19 24 28 27 28 27 25 23 23 24 23 24 25 24 21 22 23 25 25 26 28 30 32 34 34 34 32 29 29 30 31 31 30 31
19 23 23 18 21 25 29 28 30 33 32 30 27 27 28 28 29 29 29 28 32 33 31 32 34 36 38 36 36 38 39 38 38 38 40 42 41 40
24 23 23 22 16 26 32 32 32 35 36 35 33 32 30 32 33 34 35 37 38 38 40 39 42 43 40 42 44 47 50 48 47 48 51 51 48 51
29 30 29 27 30 32 35 37 37 36 37 38 38 36 38 41 39 41 43 45 47 47 49 48 47 44 46 47 50 53 52 54 56 59 61 61 63 61
35 34 33 33 32 35 38 37 37 40 41 43 42 43 43 45 46 47 47 47 48 50 50 49 51 53 54 54 54 54 58 60 63 65 66 68 71 66
41 38 33 33 36 38 39 39 39 40 42 45 47 49 51 49 48 49 51 53 54 55 55 57 58 58 57 57 60 64 68 72 73 75 75 76 75 75
42 41 37 33 36 40 42 42 44 46 47 48 49 50 51 53 54 54 56 58 59 58 60 61 61 61 64 66 69 73 80 84 85 87 91 89 89 87
43 42 45 44 45 47 48 49 48 47 50 53 55 56 56 56 59 62 62 65 63 64 65 66 70 73 75 74 76 92 94 95 98 104 104 102 103 102
48 46 47 50 51 53 53 51 53 58 60 59 63 64 64 66 65 65 68 72 75 75 73 77 78 80 83 85 94 99 104 108 111 111 115 116 121 123
50 51 48 56 60 60 67 65 57 62 63 65 64 63 65 68 72 73 77 78 80 81 82 84 87 90 91 95 102 106 111 115 118 118 121 124 130 131
53 53 58 60 61 64 65 65 66 71 73 74 71 73 74 78 80 83 88 88 88 91 92 96 98 99 101 106 111 117 119 123 128 129 127 128 129 128
58 59 57 58 60 63 67 69 69 70 71 75 78 76 80 82 84 89 93 96 100 103 105 107 107 110 113 119 125 127 131 128 127 129 128 126 126 128
64 64 63 59 60 65 68 70 71 70 72 77 80 83 88 89 92 94 98 103 106 112 116 116 117 120 126 129 129 128 129 132 134 132 136 137 144 142
67 67 68 69 69 71 75 78 79 80 80 81 83 86 89 95 100 104 105 110 116 114 121 124 127 131 130 131 132 131 136 139 143 145 148 147 141 141
62 71 73 77 81 81 81 80 79 80 86 89 93 96 100 102 105 106 113 118 119 123 128 130 133 137 142 139 138 143 149 148 148 148 133 129 121 116
68 77 80 75 77 77 80 83 86 89 91 92 97 99 103 108 110 112 114 119 125 129 130 136 142 147 147 144 150 155 151 151 144 134 123 115 109 102
78 80 75 79 80 82 84 87 89 92 95 99 104 107 107 104 108 117 124 127 132 134 143 143 146 147 150 151 148 155 155 143 126 121 112 101 94 88
80 80 83 86 87 87 92 93 96 100 100 100 101 107 112 117 120 126 134 135 138 138 141 150 149 153 154 153 157 149 128 121 113 104 97 88 84 79
85 86 89 87 88 90 91 90 97 102 109 110 111 112 116 125 130 130 137 140 142 145 151 153 151 151 152 144 130 125 116 107 97 90 85 79 74 70

GFSNE_250_spd_147.txt.gz
Wind_Speed
11 12 19 19 21 19 19 18 19 18 18 16 16 14 11 10 10 9 9 9 7 6 3 4 3 2 4 5 8 11 13 14 17 17 15 11 9 7
15 8 11 20 17 23 26 21 18 21 22 21 19 19 19 17 15 16 18 15 15 14 9 5 6 8 9 10 11 13 16 18 20 18 19 20 20 18
21 16 10 12 15 16 19 26 30 24 25 26 23 22 21 20 21 21 23 24 23 21 21 19 17 23 23 23 23 22 19 22 23 27 26 24 24 25
26 21 18 17 17 18 21 21 23 29 31 29 27 26 25 23 24 24 25 27 29 27 28 30 31 29 31 32 35 33 32 31 29 32 32 32 29 29
33 26 24 23 22 18 17 17 20 23 29 32 32 31 30 31 31 32 32 31 31 31 31 33 35 34 35 38 40 33 35 37 38 39 38 38 39 42
36 34 32 28 26 24 23 21 19 24 26 24 26 29 31 33 35 34 35 35 36 34 35 35 35 41 42 42 44 47 46 44 44 44 44 45 47 49
33 34 34 33 31 27 27 26 25 26 30 24 29 35 34 35 37 35 35 38 42 43 40 39 42 45 47 49 47 48 49 49 49 50 51 52 53 54
35 37 39 38 37 31 29 28 27 29 32 36 39 40 39 39 41 41 43 44 48 47 47 49 48 50 52 53 54 56 56 56 56 57 59 62 63 62
37 39 40 40 38 35 33 33 33 33 34 37 42 44 45 46 47 48 47 46 46 49 50 52 53 53 54 55 57 60 62 63 66 67 68 67 68 69
39 42 41 41 39 37 36 35 36 38 42 40 40 40 43 46 48 50 50 51 52 57 60 57 55 58 58 60 63 68 68 69 70 73 74 76 79 80
45 42 45 45 42 42 41 37 40 42 43 42 42 42 43 44 48 51 55 59 61 63 61 58 63 64 67 71 72 75 76 76 78 80 80 82 84 89
49 47 45 48 43 41 40 43 45 48 49 51 48 48 51 52 53 54 55 59 63 68 67 72 76 77 76 79 79 80 84 84 85 88 90 93 94 99
53 49 48 50 46 44 46 49 56 56 54 51 52 49 50 53 57 63 66 68 71 74 78 80 84 84 82 84 83 91 94 95 97 99 97 101 109 114
58 57 53 53 53 50 48 45 43 47 50 53 53 56 59 63 67 69 71 72 75 78 80 81 83 86 89 90 94 97 97 99 98 103 109 116 117 114
59 59 58 56 55 50 54 53 57 59 57 60 62 63 66 68 68 71 75 77 79 82 84 87 91 92 94 97 101 105 104 110 115 111 114 113 116 124
54 57 59 61 60 55 56 63 64 66 66 67 68 70 74 76 76 78 80 83 85 89 94 95 97 99 102 106 108 112 115 115 117 117 122 124 126 129
55 53 53 53 55 59 64 64 67 71 72 75 77 79 80 80 83 86 88 88 90 95 99 100 102 105 108 110 110 114 116 119 124 127 127 130 131 136
57 56 63 59 57 60 64 68 67 66 77 79 76 78 81 86 88 89 90 92 97 100 96 99 102 106 111 113 118 121 123 128 129 131 129 133 139 141
64 61 58 63 70 71 73 73 79 68 72 77 83 84 89 98 98 95 97 98 100 103 103 106 112 119 118 120 119 119 126 127 134 136 137 143 150 160
68 68 71 73 79 81 78 79 78 80 82 89 97 97 93 93 95 96 100 101 101 105 107 110 115 119 122 124 130 131 131 133 143 150 154 161 164 166
66 73 66 64 61 79 84 84 87 88 87 81 83 91 95 101 104 100 98 104 109 112 115 120 124 127 127 127 133 144 149 151 154 160 165 167 168 161
66 74 74 74 76 72 75 77 83 83 82 88 93 96 96 98 98 102 108 114 111 119 119 124 126 129 134 143 150 148 154 158 161 166 162 156 146 127
59 72 76 74 73 75 76 85 93 95 96 92 93 100 103 104 109 113 112 117 116 121 126 130 136 143 148 153 153 157 160 160 161 154 136 126 118 109